time_stamp(utc),avg(mph),gust(mph),direction(deg),12m_air_temp(f),sonic_u(cm/s),sonic_v(cm/s),sonic_w(cm/s),pressure,2m_air_temp(f),pyranometer(W/m^2)
"2021-03-04 00:02:39+00",10.1,11.1,,48.7,-424,-214,-2,1011.06,42.1,0
"2021-03-04 00:07:39+00",8.8,9.8,,48.2,-396,-222,0,1011.11,41.7,0
"2021-03-04 00:12:39+00",9.2,10.2,,47.1,-334,-245,1,1011.1,41.5,0
"2021-03-04 00:17:39+00",9.9,10.9,,45.8,-320,-306,-9,1011.14,41.4,0
"2021-03-04 00:22:39+00",9.8,9.8,,45.3,-311,-286,-1,1011.22,41.2,0
"2021-03-04 00:27:39+00",9.2,10.2,,44.7,-305,-263,-5,1011.12,41,0
"2021-03-04 00:32:39+00",9.9,9.9,,44.5,-334,-278,-5,1011.07,40.9,0
"2021-03-04 00:37:39+00",9.5,9.5,,45,-331,-253,-2,1011.07,40.7,0
"2021-03-04 00:42:39+00",8.6,8.6,,45.1,-286,-245,-7,1011.08,40.6,0
"2021-03-04 00:47:39+00",8.2,9.2,,45,-257,-239,-8,1011.03,40.7,0
"2021-03-04 00:52:39+00",8.1,8.1,,45,-261,-234,-8,1011.01,40.9,0
"2021-03-04 00:57:39+00",8.4,9.4,,45.2,-242,-269,-5,1010.95,41.1,0
"2021-03-04 01:02:39+00",7.8,8.8,,44.6,-160,-301,-7,1010.85,41.1,0
"2021-03-04 01:07:39+00",8.3,9.3,,43.9,-194,-316,-4,1010.87,41.1,0
"2021-03-04 01:12:39+00",9.0,10.0,,43.6,-259,-341,-8,1010.86,40.7,0
"2021-03-04 01:17:39+00",8.6,9.6,,43.6,-251,-317,-1,1010.94,40.5,0
"2021-03-04 01:22:39+00",8.1,9.1,,43.2,-225,-300,-2,1010.92,40.2,0
"2021-03-04 01:27:39+00",7.3,8.3,,42.8,-173,-283,-1,1010.91,40.1,0
"2021-03-04 01:32:39+00",8.7,9.7,,42.8,-220,-329,-3,1010.88,39.9,0
"2021-03-04 01:37:39+00",8.6,9.6,,43.3,-248,-306,-2,1011.02,40.1,0
"2021-03-04 01:42:39+00",8.3,9.3,,43.4,-230,-312,-4,1010.96,40.3,0
"2021-03-04 01:47:39+00",8.6,9.6,,43.3,-225,-324,-5,1011.02,40.3,0
"2021-03-04 01:52:39+00",8.7,9.7,,43.4,-199,-333,-4,1010.95,40.2,0
"2021-03-04 01:57:39+00",7.4,8.4,,42.9,-135,-289,-4,1010.95,40.1,0
"2021-03-04 02:02:39+00",8.4,8.4,,42.8,-145,-332,-9,1010.95,40,0
"2021-03-04 02:07:39+00",9.5,10.5,,42.6,-180,-379,-10,1010.95,39.9,0
"2021-03-04 02:12:39+00",8.9,9.9,,42.6,-239,-335,-3,1010.99,39.7,0
"2021-03-04 02:17:39+00",10.1,11.1,,42.5,-240,-378,-6,1010.96,39.6,0
"2021-03-04 02:22:39+00",9.0,10.0,,42.5,-204,-348,-3,1010.99,39.5,0
"2021-03-04 02:27:39+00",9.1,9.1,,42.5,-235,-340,-4,1010.92,39.5,0
"2021-03-04 02:32:39+00",8.6,9.6,,42.7,-252,-332,-3,1010.86,39.5,0
"2021-03-04 02:37:39+00",8.3,9.3,,42.6,-217,-309,-3,1010.9,39.3,0
"2021-03-04 02:42:39+00",7.7,7.7,,42.5,-231,-275,-1,1010.86,39.2,0
"2021-03-04 02:47:39+00",8.0,8.0,,42.3,-242,-235,-3,1010.88,39.1,0
"2021-03-04 02:52:39+00",6.5,7.5,,42,-225,-174,-1,1010.91,38.9,0
"2021-03-04 02:57:39+00",5.0,6.0,,41.6,-204,-111,-6,1010.86,38.7,0
"2021-03-04 03:02:39+00",5.0,5.0,,41.4,-195,-88,-8,1010.86,38.4,0
"2021-03-04 03:07:39+00",5.6,6.6,,41.5,-216,-78,-4,1010.8,38.2,0
"2021-03-04 03:12:39+00",4.6,5.6,,41.5,-187,-51,-5,1010.82,38.1,0
"2021-03-04 03:17:39+00",4.7,5.7,,41.5,-193,-97,-9,1010.77,38.1,0
"2021-03-04 03:22:39+00",5.5,6.5,,41.7,-203,-141,-3,1010.76,38.1,0
"2021-03-04 03:27:39+00",5.4,6.4,,41.6,-209,-133,-2,1010.77,38,0
"2021-03-04 03:32:39+00",6.2,6.2,,41.7,-221,-163,1,1010.77,37.9,0
"2021-03-04 03:37:39+00",6.3,6.3,,41.6,-215,-169,1,1010.66,38,0
"2021-03-04 03:42:39+00",6.2,6.2,,41.7,-200,-178,-2,1010.77,38,0
"2021-03-04 03:47:39+00",5.6,6.6,,41.6,-167,-202,0,1010.81,38.1,0
"2021-03-04 03:52:39+00",6.6,6.6,,41.9,-158,-239,-3,1010.68,38.1,0
"2021-03-04 03:57:39+00",6.3,7.3,,40.9,-154,-235,-3,1010.69,37.9,0
"2021-03-04 04:02:39+00",7.2,7.2,,41,-165,-266,-3,1010.64,37.4,0
"2021-03-04 04:07:39+00",6.6,6.6,,41.2,-163,-241,-2,1010.65,37,0
"2021-03-04 04:12:39+00",6.8,6.8,,40.8,-81,-277,-8,1010.56,36.9,0
"2021-03-04 04:17:39+00",7.1,8.1,,40.5,-104,-283,-8,1010.54,37.3,0
"2021-03-04 04:22:39+00",6.0,7.0,,40.4,-98,-237,-6,1010.47,37.7,0
"2021-03-04 04:27:39+00",5.9,6.9,,40.2,-96,-238,-7,1010.52,37.8,0
"2021-03-04 04:32:39+00",7.3,8.3,,40.3,-164,-283,-6,1010.35,37.8,0
"2021-03-04 04:37:39+00",7.6,8.6,,40.6,-225,-239,-6,1010.31,37.5,0
"2021-03-04 04:42:39+00",8.6,8.6,,40.8,-245,-267,2,1010.23,37.3,0
"2021-03-04 04:47:39+00",8.7,8.7,,41.1,-257,-261,-3,1010.13,37.3,0
"2021-03-04 04:52:39+00",8.0,9.0,,41.2,-247,-231,-2,1010.16,37.4,0
"2021-03-04 04:57:39+00",8.0,9.0,,41,-300,-207,3,1010.13,37.4,0
"2021-03-04 05:02:39+00",7.1,7.1,,41.1,-275,-177,5,1010.14,37.3,0
"2021-03-04 05:07:39+00",6.0,7.0,,40.9,-250,-124,-4,1010.16,37.1,0
"2021-03-04 05:12:39+00",6.2,7.2,,40.6,-263,-140,-4,1010.19,37,0
"2021-03-04 05:17:39+00",7.4,8.4,,40.6,-305,-186,-1,1010.1,36.8,0
"2021-03-04 05:22:39+00",8.0,9.0,,41,-333,-168,-1,1010.13,36.7,0
"2021-03-04 05:27:39+00",9.0,10.0,,41.2,-350,-151,4,1010.13,36.6,0
"2021-03-04 05:32:39+00",8.1,9.1,,41.4,-331,-96,5,1010.12,36.6,0
"2021-03-04 05:37:39+00",8.3,9.3,,41.3,-347,-84,-2,1010.07,36.8,0
"2021-03-04 05:42:39+00",10.1,11.1,,41.7,-423,-103,4,1010.05,37.1,0
"2021-03-04 05:47:39+00",11.1,12.1,,41.9,-472,-125,12,1010.02,37.4,0
"2021-03-04 05:52:39+00",10.6,11.6,,42.1,-459,-69,8,1010.09,37.8,0
"2021-03-04 05:57:39+00",14.9,16.9,,41.3,-7,659,19,1010.39,38.2,0
"2021-03-04 06:02:39+00",10.1,11.1,,41,-111,428,7,1010.6,38.2,0
"2021-03-04 06:07:39+00",9.5,10.5,,39.7,55,403,5,1010.58,37.9,0
"2021-03-04 06:12:39+00",9.3,10.3,,38.2,43,396,-1,1010.68,37.1,0
"2021-03-04 06:17:39+00",10.4,11.4,,38,51,450,-1,1010.68,36.5,0
"2021-03-04 06:22:39+00",7.3,8.3,,37.8,78,288,-2,1010.57,36,0
"2021-03-04 06:27:39+00",6.9,7.9,,38.2,-97,281,-3,1010.52,35.8,0
"2021-03-04 06:32:39+00",5.3,6.3,,38.8,-139,183,14,1010.35,35.7,0
"2021-03-04 06:37:39+00",4.4,5.4,,38.5,-112,141,-4,1010.37,35.6,0
"2021-03-04 06:42:39+00",4.4,4.4,,38.9,-178,68,-1,1010.36,35.3,0
"2021-03-04 06:47:39+00",3.9,4.9,,39,-97,128,3,1010.34,35.1,0
"2021-03-04 06:52:39+00",4.6,6.6,,38.4,64,184,-2,1010.37,34.9,0
"2021-03-04 06:57:39+00",5.6,6.6,,38.5,-31,237,1,1010.28,34.7,0
"2021-03-04 07:02:39+00",4.9,5.9,,38.8,-166,135,-3,1010.2,34.6,0
"2021-03-04 07:07:39+00",4.3,4.3,,38.9,5,181,-3,1010.19,34.5,0
"2021-03-04 07:12:39+00",4.7,4.7,,39,-167,105,-2,1010.1,34.4,0
"2021-03-04 07:17:39+00",4.4,4.4,,39,-173,84,3,1010.15,34.2,0
"2021-03-04 07:22:39+00",4.2,5.2,,38.5,-156,91,-4,1010.12,34.1,0
"2021-03-04 07:27:39+00",5.2,5.2,,38.3,-225,55,-2,1010.09,34,0
"2021-03-04 07:32:39+00",5.2,5.2,,37.8,-189,127,10,1010.13,33.9,0
"2021-03-04 07:37:39+00",5.8,5.8,,37.6,-227,128,15,1010.21,33.8,0
"2021-03-04 07:42:39+00",6.5,7.5,,37.3,-205,196,12,1010.15,33.7,0
"2021-03-04 07:47:39+00",7.1,7.1,,36.8,-228,213,15,1010.02,33.8,0
"2021-03-04 07:52:39+00",6.4,7.4,,36.7,-234,161,10,1009.98,33.8,0
"2021-03-04 07:57:39+00",7.4,8.4,,36.7,-285,168,9,1009.93,33.8,0
"2021-03-04 08:02:39+00",7.3,8.3,,36.8,-280,166,12,1009.94,33.9,0
"2021-03-04 08:07:39+00",6.6,6.6,,36.7,-254,150,14,1009.78,34,0
"2021-03-04 08:12:39+00",10.0,10.0,,36.8,-418,187,23,1010.13,34,0
"2021-03-04 08:17:39+00",10.0,11.0,,37.1,-368,240,17,1010.19,34.5,0
"2021-03-04 08:22:39+00",12.1,12.1,,37.2,-427,343,22,1010.18,35.2,0
"2021-03-04 08:27:39+00",11.1,12.1,,37.4,-403,299,38,1010.2,35.7,0
"2021-03-04 08:32:39+00",10.1,11.1,,37.1,-343,301,21,1010.17,35.9,0
"2021-03-04 08:37:39+00",9.1,10.1,,36.7,-329,261,22,1010.19,35.8,0
"2021-03-04 08:42:39+00",10.5,11.5,,36.7,-359,313,25,1010.15,35.7,0
"2021-03-04 08:47:39+00",12.2,13.2,,36.7,-395,380,27,1010.22,35.6,0
"2021-03-04 08:52:39+00",10.2,11.2,,36.8,-390,242,21,1010.24,35.7,0
"2021-03-04 08:57:39+00",9.8,10.8,,36.7,-389,195,12,1010.18,35.6,0
"2021-03-04 09:02:39+00",9.1,10.1,,36.5,-339,249,18,1010.28,35.4,0
"2021-03-04 09:07:39+00",10.8,11.8,,36.1,-422,237,16,1010.32,35.2,0
"2021-03-04 09:12:39+00",9.3,10.3,,36.5,-329,254,18,1010.42,35.1,0
"2021-03-04 09:17:39+00",11.1,12.1,,36.6,-394,309,29,1010.44,35.2,0
"2021-03-04 09:22:39+00",10.5,11.5,,37.3,-340,328,30,1010.44,35.3,0
"2021-03-04 09:27:39+00",8.5,9.5,,37.1,-312,219,25,1010.43,35.3,0
"2021-03-04 09:32:39+00",6.7,7.7,,37.4,-180,233,9,1010.34,35.2,0
"2021-03-04 09:37:39+00",6.4,8.4,,37.3,-183,217,13,1010.41,35.1,0
"2021-03-04 09:42:39+00",5.2,7.2,,37.2,-120,186,7,1010.48,35,0
"2021-03-04 09:47:39+00",5.7,6.7,,37.2,-130,210,11,1010.47,34.8,0
"2021-03-04 09:52:39+00",5.1,6.1,,37.2,-145,171,5,1010.49,34.6,0
"2021-03-04 09:57:39+00",5.6,6.6,,37.3,-145,194,8,1010.53,34.5,0
"2021-03-04 10:02:39+00",3.0,4.0,,37.2,-98,65,6,1010.57,34.4,0
"2021-03-04 10:07:39+00",6.3,8.3,,37.4,-154,218,9,1010.54,34.3,0
"2021-03-04 10:12:39+00",5.5,8.5,,37.8,-162,125,10,1010.56,34.6,0
"2021-03-04 10:17:39+00",5.6,6.6,,37.9,-220,98,20,1010.63,34.9,0
"2021-03-04 10:22:39+00",7.3,9.3,,37.9,-257,202,5,1010.7,35.1,0
"2021-03-04 10:27:39+00",9.0,11.0,,37.9,-197,340,8,1010.59,35.3,0
"2021-03-04 10:32:39+00",9.9,11.9,,37.6,-214,387,15,1010.57,35.5,0
"2021-03-04 10:37:39+00",9.5,10.5,,37.4,-163,382,7,1010.68,35.5,0
"2021-03-04 10:42:39+00",8.9,10.9,,37.3,-139,366,11,1010.7,35.5,0
"2021-03-04 10:47:39+00",9.0,11.0,,37.1,-119,384,0,1010.75,35.4,0
"2021-03-04 10:52:39+00",9.7,10.7,,37.2,-118,410,0,1010.77,35.2,0
"2021-03-04 10:57:39+00",10.5,12.5,,37.1,-164,432,10,1010.8,35.1,0
"2021-03-04 11:02:39+00",11.0,13.0,,37.1,-195,445,12,1010.73,35.1,0
"2021-03-04 11:07:39+00",9.1,10.1,,37.1,-210,343,15,1010.72,35.1,0
"2021-03-04 11:12:39+00",10.3,13.3,,37.3,-209,398,9,1010.76,35.1,0
"2021-03-04 11:17:39+00",8.6,9.6,,37.3,-182,335,12,1010.77,35.2,0
"2021-03-04 11:22:39+00",9.2,10.2,,37.3,-194,362,17,1010.84,35.2,0
"2021-03-04 11:27:39+00",8.9,9.9,,37.3,-202,331,14,1010.8,35.1,0
"2021-03-04 11:32:39+00",9.2,10.2,,37.4,-241,318,19,1010.81,35.1,0
"2021-03-04 11:37:39+00",9.3,10.3,,37.6,-291,297,15,1010.8,35.2,0
"2021-03-04 11:42:39+00",9.5,10.5,,37.8,-274,321,12,1010.79,35.5,0
"2021-03-04 11:47:39+00",9.9,10.9,,37.6,-270,345,15,1010.88,35.7,0
"2021-03-04 11:52:39+00",9.9,10.9,,37.6,-289,332,20,1010.9,35.9,0
"2021-03-04 11:57:39+00",11.4,12.4,,37.5,-325,388,22,1010.94,36.1,0
"2021-03-04 12:02:39+00",8.6,9.6,,37.3,-292,246,19,1010.92,36.2,0
"2021-03-04 12:07:39+00",8.9,10.9,,37.2,-301,242,26,1010.92,36.4,0
"2021-03-04 12:12:39+00",9.5,10.5,,37.1,-355,257,24,1011.1,36.7,0
"2021-03-04 12:17:39+00",8.9,9.9,,36.8,-344,194,19,1011.09,36.9,0
"2021-03-04 12:22:39+00",9.8,10.8,,36.5,-376,235,26,1011.08,37,0
"2021-03-04 12:27:39+00",11.1,13.1,,36.6,-424,275,30,1011.17,37.1,0
"2021-03-04 12:32:39+00",10.9,12.9,,36.7,-406,279,41,1011.17,37.3,0
"2021-03-04 12:37:39+00",11.0,12.0,,36.9,-391,303,17,1011.15,37.5,0
"2021-03-04 12:42:39+00",8.8,10.8,,36.9,-328,223,28,1011.12,37.8,0
"2021-03-04 12:47:39+00",9.2,11.2,,37.3,-341,223,19,1011.12,38.2,0
"2021-03-04 12:52:39+00",10.4,11.4,,37.6,-393,260,11,1011.07,38.6,0
"2021-03-04 12:57:39+00",10.4,12.4,,38.1,-375,267,27,1011.09,39.1,0
"2021-03-04 13:02:39+00",12.0,14.0,,38.6,-437,306,14,1011.21,39.6,0
"2021-03-04 13:07:39+00",14.0,16.0,,39.4,-481,412,29,1011.23,40.1,0
"2021-03-04 13:12:39+00",13.3,16.3,,39.9,-469,385,42,1011.23,40.6,0
"2021-03-04 13:17:39+00",14.2,16.2,,40.5,-519,397,24,1011.22,41.2,0
"2021-03-04 13:22:39+00",13.5,16.5,,40.9,-464,386,23,1011.04,41.8,0
"2021-03-04 13:27:39+00",13.8,15.8,,41,-528,353,26,1011.1,42.1,0
"2021-03-04 13:32:39+00",11.4,13.4,,41.2,-418,307,50,1011.02,42.4,0
"2021-03-04 13:37:39+00",14.6,17.6,,41.5,-511,421,25,1010.94,42.7,0
"2021-03-04 13:42:39+00",12.7,14.7,,41.8,-451,356,32,1010.94,43,0
"2021-03-04 13:47:39+00",14.0,17.0,,42.2,-478,413,36,1010.82,43.4,0
"2021-03-04 13:52:39+00",13.7,16.7,,42.7,-451,402,32,1010.77,43.9,0
"2021-03-04 13:57:39+00",17.3,19.3,,43.1,-553,563,47,1010.75,44.2,0
"2021-03-04 14:02:39+00",18.2,21.2,,43.2,-557,596,34,1010.59,44.5,0
"2021-03-04 14:07:39+00",17.6,20.6,,43.4,-550,553,26,1010.63,44.7,0
"2021-03-04 14:12:39+00",17.2,19.2,,43.7,-485,575,35,1010.62,45,0
"2021-03-04 14:17:39+00",15.3,17.3,,44,-468,501,40,1010.67,45.3,0
"2021-03-04 14:22:39+00",14.5,17.5,,44.1,-426,476,53,1010.7,45.5,0
"2021-03-04 14:27:39+00",16.1,19.1,,44.2,-462,542,32,1010.65,45.8,0
"2021-03-04 14:32:39+00",15.0,19.0,,44.3,-540,425,37,1010.62,45.9,0
"2021-03-04 14:37:39+00",16.8,19.8,,44.1,-652,396,44,1010.52,45.9,0
"2021-03-04 14:42:39+00",15.6,18.6,,44.4,-511,468,20,1010.52,46,0
"2021-03-04 14:47:39+00",19.9,22.9,,44.5,-689,595,45,1010.48,46.1,0
"2021-03-04 14:52:39+00",19.5,23.5,,44.4,-608,645,49,1010.49,46,0
"2021-03-04 14:57:39+00",19.9,25.9,,44.5,-766,507,52,1010.47,46,0
"2021-03-04 15:02:39+00",18.8,22.8,,44.4,-709,503,60,1010.52,46,0
"2021-03-04 15:07:39+00",22.1,25.1,,44.6,-676,750,56,1010.37,46.1,0
"2021-03-04 15:12:39+00",24.2,27.2,,44.9,-700,830,51,1010.36,46.3,0
"2021-03-04 15:17:39+00",19.8,22.8,,44.7,-689,585,63,1010.37,46.3,0
"2021-03-04 15:22:39+00",20.7,24.7,,44.8,-743,543,40,1010.33,46.4,0
"2021-03-04 15:27:39+00",20.8,23.8,,44.6,-762,527,64,1010.26,46.2,0
"2021-03-04 15:32:39+00",22.4,24.4,,44.3,-800,606,47,1010.38,45.3,0
"2021-03-04 15:37:39+00",20.8,23.8,,44.5,-753,550,51,1010.41,45.7,0
"2021-03-04 15:42:39+00",21.1,25.1,,44.6,-806,556,49,1010.29,46,0
"2021-03-04 15:47:39+00",23.8,25.8,,44.4,-806,698,46,1010.24,45.5,0
"2021-03-04 15:52:39+00",21.6,24.6,,44.5,-814,511,41,1010.2,45.5,0
"2021-03-04 15:57:39+00",20.0,25.0,,45,-583,656,85,1010.2,46.1,0
"2021-03-04 16:02:39+00",22.1,25.1,,44.7,-664,740,60,1010.2,45.8,0
"2021-03-04 16:07:39+00",16.8,19.8,,44.8,-623,435,57,1010.19,45.8,0
"2021-03-04 16:12:39+00",22.7,26.7,,44.8,-909,515,40,1010.16,45.9,0
"2021-03-04 16:17:39+00",18.1,21.1,,44.9,-588,562,57,1010.17,45.9,0
"2021-03-04 16:22:39+00",17.5,19.5,,45,-558,538,53,1010.03,46.1,0
"2021-03-04 16:27:39+00",19.3,21.3,,44.9,-653,585,43,1010,45.9,0
"2021-03-04 16:32:39+00",19.4,22.4,,45.1,-679,534,68,1009.88,46.1,0
"2021-03-04 16:37:39+00",23.6,27.6,,45.3,-849,644,48,1009.75,46.7,0
"2021-03-04 16:42:39+00",21.3,25.3,,45.4,-863,456,75,1009.73,47,0
"2021-03-04 16:47:39+00",21.8,25.8,,45.2,-807,612,48,1009.66,46.9,0
"2021-03-04 16:52:39+00",20.5,24.5,,45.3,-773,505,45,1009.61,46.9,0
"2021-03-04 16:57:39+00",18.3,21.3,,45.6,-593,560,38,1009.52,47.4,0
"2021-03-04 17:02:39+00",20.8,23.8,,45.4,-595,698,27,1009.47,47.4,0
"2021-03-04 17:07:39+00",13.8,15.8,,45.4,-533,319,71,1009.46,47,0
"2021-03-04 17:12:39+00",19.7,21.7,,45.5,-780,466,35,1009.32,47.3,0
"2021-03-04 17:17:39+00",24.6,26.6,,45.2,-938,618,62,1009.26,47,0
"2021-03-04 17:22:39+00",14.6,17.6,,45.3,-485,430,45,1009.17,46.8,0
"2021-03-04 17:27:39+00",21.4,23.4,,45.6,-742,608,26,1009.09,46.9,0
"2021-03-04 17:32:39+00",20.4,24.4,,45.7,-687,617,25,1009.05,47.3,0
"2021-03-04 17:37:39+00",20.0,23.0,,45.3,-744,532,61,1008.94,47,0
"2021-03-04 17:42:39+00",13.8,15.8,,45.6,-524,331,61,1008.82,47.4,0
"2021-03-04 17:47:39+00",17.6,18.6,,45.6,-605,513,65,1008.82,47.2,0
"2021-03-04 17:52:39+00",19.0,21.0,,45.6,-625,560,52,1008.74,47.5,0
"2021-03-04 17:57:39+00",20.6,23.6,,45.9,-855,360,42,1008.64,47.8,0
"2021-03-04 18:02:39+00",21.1,24.1,,46.4,-616,699,74,1008.62,48.2,0
"2021-03-04 18:07:39+00",22.6,24.6,,45.7,-795,638,49,1008.57,47.8,0
"2021-03-04 18:12:39+00",16.8,20.8,,46,-658,410,29,1008.62,47.9,0
"2021-03-04 18:17:39+00",23.9,27.9,,46,-981,483,67,1008.53,48.1,0
"2021-03-04 18:22:39+00",19.3,24.3,,46,-848,245,64,1008.5,48.4,0
"2021-03-04 18:27:39+00",19.7,21.7,,45.7,-604,654,36,1008.48,47.9,0
"2021-03-04 18:32:39+00",24.6,25.6,,45.9,-917,631,41,1008.48,47.8,0
"2021-03-04 18:37:39+00",22.3,27.3,,45.9,-998,336,55,1008.36,48.1,0
"2021-03-04 18:42:39+00",19.2,21.2,,45.8,-673,539,56,1008.39,47.7,0
"2021-03-04 18:47:39+00",23.8,27.8,,45.9,-926,532,41,1008.32,47.7,0
"2021-03-04 18:52:39+00",20.9,23.9,,45.8,-801,503,59,1008.36,47.7,0
"2021-03-04 18:57:39+00",23.0,28.0,,45.8,-918,512,46,1008.35,47.8,0
"2021-03-04 19:02:39+00",20.8,22.8,,45.7,-720,603,68,1008.29,47.3,0
"2021-03-04 19:07:39+00",21.5,25.5,,46,-746,605,64,1008.34,47.7,0
"2021-03-04 19:12:39+00",19.4,23.4,,45.4,-781,441,55,1008.38,47.2,0
"2021-03-04 19:17:39+00",17.7,22.7,,46,-683,431,59,1008.49,47.5,0
"2021-03-04 19:22:39+00",21.9,23.9,,45.4,-729,649,46,1008.43,46.7,0
"2021-03-04 19:27:39+00",17.2,22.2,,45.7,-604,509,55,1008.53,46.6,0
"2021-03-04 19:32:39+00",23.9,27.9,,45.5,-955,526,50,1008.54,46.4,0
"2021-03-04 19:37:39+00",20.2,23.2,,45.9,-747,534,45,1008.6,47,0
"2021-03-04 19:42:39+00",21.7,22.7,,46,-618,761,48,1008.54,47.4,0
"2021-03-04 19:47:39+00",16.9,20.9,,45.6,-512,583,65,1008.64,46.7,0
"2021-03-04 19:52:39+00",18.5,22.5,,46.1,-606,591,76,1008.64,46.9,0
"2021-03-04 19:57:39+00",24.2,26.2,,45.7,-769,781,52,1008.67,46.9,0
"2021-03-04 20:02:39+00",17.2,19.2,,45.5,-590,489,43,1008.71,46.6,0
"2021-03-04 20:07:39+00",20.4,23.4,,45.7,-609,685,36,1008.73,46.7,0
"2021-03-04 20:12:39+00",18.9,20.9,,45.9,-636,563,29,1008.71,47.1,0
"2021-03-04 20:17:39+00",20.4,23.4,,45.8,-552,736,58,1008.78,46.9,0
"2021-03-04 20:22:39+00",21.9,24.9,,45.8,-544,793,33,1008.81,47.2,0
"2021-03-04 20:27:39+00",22.8,25.8,,45.6,-809,663,54,1008.79,46.7,0
"2021-03-04 20:32:39+00",22.9,25.9,,45.5,-709,732,55,1008.93,46.2,0
"2021-03-04 20:37:39+00",23.6,28.6,,45.9,-745,769,63,1008.96,46.8,0
"2021-03-04 20:42:39+00",28.4,31.4,,45.6,-873,908,64,1008.91,46.4,0
"2021-03-04 20:47:39+00",22.3,29.3,,45.2,-743,654,51,1009.08,45.7,0
"2021-03-04 20:52:39+00",24.7,28.7,,45.2,-791,790,70,1009.1,45.5,0
"2021-03-04 20:57:39+00",24.7,28.7,,45.2,-787,787,63,1009.08,45.7,0
"2021-03-04 21:02:39+00",27.2,32.2,,45,-1036,699,40,1009.05,45.3,0
"2021-03-04 21:07:39+00",29.6,33.6,,45,-1014,865,73,1009.17,45.1,0
"2021-03-04 21:12:39+00",26.3,29.3,,44.9,-977,686,69,1009.23,44.9,0
"2021-03-04 21:17:39+00",22.5,27.5,,44.8,-820,597,39,1009.24,45.1,0
"2021-03-04 21:22:39+00",24.2,28.2,,44.7,-885,634,61,1009.2,44.8,0
"2021-03-04 21:27:39+00",24.3,27.3,,44.7,-957,547,51,1009.32,44.6,0
"2021-03-04 21:32:39+00",24.2,26.2,,44.8,-856,682,53,1009.4,44.8,0
"2021-03-04 21:37:39+00",23.6,27.6,,44.6,-931,535,50,1009.36,44.6,0
"2021-03-04 21:42:39+00",24.5,28.5,,44.5,-910,590,52,1009.44,44.4,0
"2021-03-04 21:47:39+00",26.4,32.4,,44.4,-969,721,59,1009.35,44.3,0
"2021-03-04 21:52:39+00",23.0,26.0,,44.3,-853,593,52,1009.57,44.1,0
"2021-03-04 21:57:39+00",23.0,26.0,,44.3,-909,563,34,1009.61,44.1,0
"2021-03-04 22:02:39+00",19.1,22.1,,44.3,-458,718,33,1009.67,44,0
"2021-03-04 22:07:39+00",21.1,24.1,,44.1,-559,751,56,1009.72,43.9,0
"2021-03-04 22:12:39+00",26.8,29.8,,44,-721,960,44,1009.75,43.7,0
"2021-03-04 22:17:39+00",18.4,22.4,,43.8,-595,562,63,1009.87,43.6,0
"2021-03-04 22:22:39+00",23.4,28.4,,43.6,-734,780,56,1009.93,43.4,0
"2021-03-04 22:27:39+00",23.7,26.7,,43.4,-731,781,60,1010.11,43.1,0
"2021-03-04 22:32:39+00",28.4,32.4,,43.2,-787,999,47,1010.05,42.8,0
"2021-03-04 22:37:39+00",28.3,34.3,,43.1,-990,820,52,1010.14,42.5,0
"2021-03-04 22:42:39+00",25.5,31.5,,43,-708,919,63,1010.2,42.4,0
"2021-03-04 22:47:39+00",15.7,18.7,,42.6,-379,588,49,1010.42,42.1,0
"2021-03-04 22:52:39+00",15.1,17.1,,42.1,-289,620,31,1010.4,41.6,0
"2021-03-04 22:57:39+00",21.0,25.0,,42.1,-491,806,38,1010.54,41.3,0
"2021-03-04 23:02:39+00",14.6,16.6,,41.6,-285,566,40,1010.79,41.1,0
"2021-03-04 23:07:39+00",19.8,22.8,,41.2,-274,847,24,1010.87,40.6,0
"2021-03-04 23:12:39+00",18.7,20.7,,41,-298,780,24,1010.99,40.3,0
"2021-03-04 23:17:39+00",23.6,26.6,,40.6,-401,970,39,1011.12,40,0
"2021-03-04 23:22:39+00",15.7,19.7,,40.2,-323,610,23,1011.28,39.6,0
"2021-03-04 23:27:39+00",16.1,18.1,,40.2,-270,663,18,1011.41,39.5,0
"2021-03-04 23:32:39+00",21.6,30.6,,39.7,-295,936,16,1011.51,39.1,0
"2021-03-04 23:37:39+00",18.6,21.6,,39.3,-305,778,29,1011.65,38.8,0
"2021-03-04 23:42:39+00",15.1,17.1,,39.2,-259,631,28,1011.78,38.5,0
"2021-03-04 23:47:39+00",18.2,21.2,,39.1,-363,727,12,1011.79,38.3,0
"2021-03-04 23:52:39+00",24.4,28.4,,39,-529,962,21,1011.85,38.2,0
"2021-03-04 23:57:39+00",19.1,25.1,,38.8,-432,733,42,1011.91,38.1,0
